Regional Weather Roundup
Issued by NWS

Home | Current Version | Previous Version | Text Only | Print | Product List | Glossary Off
Versions: 1 2 3 4 5 6 7 8 9 10 11 12 13 14 15 16 17 18 19 20 21 22 23 24 25 26 27 28 29 30 31 32 33 34 35 36 37 38 39 40 41 42 43 44 45 46 47 48 49 50

000
ASUS43 KLSX 110107
RWRMO

WEATHER SUMMARY FOR MISSOURI
NATIONAL WEATHER SERVICE SPRINGFIELD MO
700 PM CST SAT DEC 10 2016

NOTE: "FAIR" INDICATES FEW OR NO CLOUDS BELOW 12,000 FEET WITH NO
       SIGNIFICANT WEATHER AND/OR OBSTRUCTIONS TO VISIBILITY.
       CURRENT SKY AND/OR WEATHER CONDITIONS ARE NOT AVAILABLE FOR
       CHILLICOTHE AND FARMINGTON.

MOZ001>031-035>038-043-044-053-054-110200-
...NORTHERN AND WESTERN MISSOURI...

CITY           SKY/WX    TMP DP  RH WIND       PRES   REMARKS
KANSAS CTY INT CLOUDY    36  17  46 SE10      30.06F WCI  28
KANSAS C DTWN  CLOUDY    38  18  44 SE6       30.07F
LEE`S SUMMIT   CLOUDY    37  18  46 SE13      30.06F WCI  29
ST JOSEPH      CLOUDY    34  23  64 SE8       30.06F WCI  27
CHILLICOTHE      N/A     33  18  53 SE10      30.13F WCI  25
KIRKSVILLE     CLOUDY    30  18  60 SE13      30.15F WCI  20

$$
MOZ066>068-077>081-088>096-101>105-110200-
...SOUTHWEST MISSOURI...

CITY           SKY/WX    TMP DP  RH WIND       PRES   REMARKS
SPRINGFIELD    CLOUDY    36  19  50 SE18G29   30.13F WCI  26
JOPLIN         CLOUDY    43  14  31 S12       30.10F
BRANSON        CLOUDY    37  16  41 SE13G20   30.20F WCI  29

$$
MOZ032>034-039>042-045>050-055>058-069>072-110200-
...CENTRAL MISSOURI...

CITY           SKY/WX    TMP DP  RH WIND       PRES   REMARKS
COLUMBIA       CLOUDY    34  17  50 SE16      30.16F WCI  24
JEFFERSON CITY CLOUDY    35  17  47 SE12      30.21F WCI  27
ROLLA          CLOUDY    33  17  51 SE16      30.19F WCI  23
SEDALIA        CLOUDY    37  18  46 SE14      30.12F WCI  28
WHITEMAN AFB   CLOUDY    37  19  48 S12       30.08F WCI  30
WARRENSBURG    CLOUDY    36  21  55 SE14      30.09F WCI  27
OSAGE BEACH    CLOUDY    35  17  47 S13G21    30.19F WCI  26

$$
MOZ051-052-059>065-110200-
...EAST CENTRAL MISSOURI...

CITY           SKY/WX    TMP DP  RH WIND       PRES   REMARKS
ST LOUIS INTL  CLOUDY    35  18  49 SE14      30.30F WCI  26
SPIRIT OF STL  CLOUDY    34  21  59 SE5       30.29F WCI  30
ST CHARLES     CLOUDY    33  21  61 SE13      30.29F WCI  24

$$
MOZ072>076-082>087-097>100-106>115-110200-
...SOUTH CENTRAL AND SOUTHEAST MISSOURI...

CITY           SKY/WX    TMP DP  RH WIND       PRES   REMARKS
CAPE GIRARDEAU CLOUDY    36  20  52 SE8       30.36F WCI  30
FARMINGTON     CLOUDY    32  21  64 S13       30.31F WCI  22
POPLAR BLUFF   CLOUDY    35  23  61 CALM      30.38R
WEST PLAINS    CLOUDY    32  18  56 SE10G18   30.28F WCI  24

$$


USA.gov is the U.S. government's official web portal to all federal, state and local government web resources and services.